Lincolnton, NC

4:51 AM EDT on September 23, 2017 (GMT -0400)
Lincolnton-Lincoln County Regional

Weather History for KIPJ - January, 2014

Change the Weather History Date:

Monday, January 27, 2014

  Actual Average (KCLT) Record (KCLT)
Temperature  
Mean Temperature 49 °F -  
Max Temperature 63 °F 50 °F 75 °F (1890)
Min Temperature 35 °F 29 °F 6 °F (1940)
Degree Days  
Heating Degree Days 16    
Moisture  
Dew Point 28 °F    
Average Humidity 44    
Maximum Humidity 60    
Minimum Humidity 31    
Precipitation  
Precipitation 0.00 in - - ()
Sea Level Pressure  
Sea Level Pressure 29.87 in    
Wind  
Wind Speed 7 mph (WNW)    
Max Wind Speed 14 mph    
Max Gust Speed 22 mph    
Visibility 10 miles    
Events      
Averages and records for this station are not official NWS values.
T = Trace of Precipitation, MM = Missing Value Source: NWS Daily Summary

Daily Weather History Graph

Daily Weather History Graph

Search for Another Location

Airport or City:

Trip Planner

Search our weather history database for the weather conditions in past years. The results will help you decide how hot, cold, wet, or windy it might be!

Date:

Astronomy

Jan. 27, 2014 Rise Set
Actual Time 7:27 AM EST 5:47 PM EST
Civil Twilight 7:00 AM EST 6:14 PM EST
Nautical Twilight 6:30 AM EST 6:45 PM EST
Astronomical Twilight 5:59 AM EST 7:15 PM EST
Moon 4:06 AM EST (1/27) 2:33 PM EST (1/27)
Length of Visible Light 11h 13m
Length of Day
10h 19m
Waning Crescent, 15% of the Moon is Illuminated
Jan 27
Waning Crescent
Jan 30
New
Feb 6
First Quarter
Feb 14
Full
Feb 22
Last Quarter

Hourly Weather History & Observations

Time (EST) Temp. Windchill Dew Point Humidity Pressure Visibility Wind Dir Wind Speed Gust Speed Precip Events Conditions
12:15 AM 45.5 °F 41.3 °F 26.6 °F 48% 29.84 in 10.0 mi SW 8.1 mph - N/A   Clear
12:35 AM 45.0 °F 40.1 °F 26.6 °F 49% 29.84 in 10.0 mi SW 9.2 mph - N/A   Clear
12:55 AM 44.8 °F 41.0 °F 26.6 °F 49% 29.84 in 10.0 mi WSW 6.9 mph - N/A   Clear
1:15 AM 45.3 °F 41.6 °F 26.6 °F 48% 29.84 in 10.0 mi SW 6.9 mph - N/A   Clear
1:35 AM 45.7 °F 41.0 °F 26.6 °F 47% 29.83 in 10.0 mi SW 9.2 mph - N/A   Clear
1:55 AM 46.6 °F - 26.6 °F 46% 29.83 in 10.0 mi WSW 8.1 mph 18.4 mph N/A   Clear
2:15 AM 46.2 °F 42.2 °F 26.6 °F 46% 29.84 in 10.0 mi WSW 8.1 mph - N/A   Scattered Clouds
2:35 AM 47.1 °F - 26.8 °F 45% 29.83 in 10.0 mi WSW 6.9 mph - N/A   Mostly Cloudy
2:55 AM 47.3 °F - 27.0 °F 45% 29.83 in 10.0 mi SW 10.4 mph 16.1 mph N/A   Overcast
3:15 AM 47.3 °F - 27.1 °F 46% 29.83 in 10.0 mi SW 11.5 mph 19.6 mph N/A   Mostly Cloudy
3:35 AM 47.8 °F - 27.0 °F 44% 29.83 in 10.0 mi SW 13.8 mph 20.7 mph N/A   Overcast
3:55 AM 48.2 °F - 27.1 °F 44% 29.84 in 10.0 mi WSW 11.5 mph 21.9 mph N/A   Overcast
4:15 AM 47.7 °F - 27.1 °F 45% 29.83 in 10.0 mi SW 9.2 mph 17.3 mph N/A   Overcast
4:35 AM 47.7 °F - 27.1 °F 45% 29.82 in 10.0 mi SW 11.5 mph - N/A   Overcast
4:55 AM 48.0 °F - 27.1 °F 44% 29.82 in 10.0 mi SW 10.4 mph 17.3 mph N/A   Overcast
5:15 AM 47.3 °F - 27.3 °F 46% 29.81 in 10.0 mi WSW 6.9 mph - N/A   Overcast
5:35 AM 46.8 °F - 27.5 °F 47% 29.81 in 10.0 mi SW 8.1 mph - N/A   Overcast
5:55 AM 46.6 °F - 27.7 °F 48% 29.82 in 10.0 mi WSW 8.1 mph - N/A   Overcast
6:15 AM 46.4 °F 41.9 °F 27.9 °F 48% 29.82 in 10.0 mi WSW 9.2 mph - N/A   Mostly Cloudy
6:35 AM 46.6 °F - 27.9 °F 48% 29.83 in 10.0 mi SW 8.1 mph - N/A   Overcast
6:55 AM 45.7 °F 41.5 °F 28.0 °F 50% 29.84 in 10.0 mi West 8.1 mph - N/A   Overcast
7:15 AM 43.3 °F 38.6 °F 27.9 °F 54% 29.85 in 10.0 mi SW 8.1 mph - N/A   Scattered Clouds
7:35 AM 43.0 °F 38.2 °F 28.2 °F 56% 29.85 in 10.0 mi WSW 8.1 mph - N/A   Clear
7:55 AM 43.5 °F 40.1 °F 28.2 °F 55% 29.84 in 10.0 mi WSW 5.8 mph - N/A   Clear
8:15 AM 41.2 °F 38.2 °F 28.2 °F 60% 29.84 in 10.0 mi WSW 4.6 mph - N/A   Clear
8:35 AM 45.7 °F 44.4 °F 28.9 °F 52% 29.85 in 10.0 mi West 3.5 mph - N/A   Scattered Clouds
8:55 AM 47.5 °F - 28.6 °F 48% 29.84 in 10.0 mi WSW 8.1 mph - N/A   Clear
9:15 AM 50.0 °F - 28.8 °F 44% 29.85 in 10.0 mi WSW 6.9 mph - N/A   Clear
9:35 AM 51.3 °F - 28.8 °F 42% 29.85 in 10.0 mi West 6.9 mph - N/A   Clear
9:55 AM 52.7 °F - 28.9 °F 40% 29.86 in 10.0 mi West 8.1 mph - N/A   Clear
10:15 AM 53.4 °F - 28.8 °F 39% 29.85 in 10.0 mi WSW 9.2 mph - N/A   Clear
10:35 AM 54.5 °F - 28.8 °F 37% 29.85 in 10.0 mi Calm Calm - N/A   Clear
10:55 AM 55.2 °F - 28.6 °F 36% 29.85 in 10.0 mi WSW 4.6 mph - N/A   Clear
11:15 AM 56.8 °F - 29.1 °F 35% 29.85 in 10.0 mi WSW 5.8 mph - N/A   Clear
11:35 AM 58.8 °F - 29.8 °F 33% 29.85 in 10.0 mi West 8.1 mph - N/A   Clear
11:55 AM 58.5 °F - 30.2 °F 34% 29.84 in 10.0 mi West 8.1 mph - N/A   Clear
12:15 PM 58.5 °F - 30.4 °F 34% 29.84 in 10.0 mi West 8.1 mph - N/A   Clear
12:35 PM 59.0 °F - 30.7 °F 34% 29.83 in 10.0 mi Calm Calm - N/A   Scattered Clouds
12:55 PM 59.2 °F - 30.7 °F 34% 29.82 in 10.0 mi West 3.5 mph - N/A   Clear
1:15 PM 60.1 °F - 30.7 °F 33% 29.82 in 10.0 mi NW 4.6 mph - N/A   Scattered Clouds
1:35 PM 60.1 °F - 30.7 °F 33% 29.80 in 10.0 mi Calm Calm - N/A   Scattered Clouds
1:55 PM 62.1 °F - 31.1 °F 31% 29.80 in 10.0 mi Calm Calm - N/A   Scattered Clouds
2:15 PM 62.4 °F - 31.8 °F 32% 29.79 in 10.0 mi North 8.1 mph - N/A   Scattered Clouds
2:35 PM 63.0 °F - 32.0 °F 31% 29.79 in 10.0 mi West 8.1 mph - N/A   Clear
2:55 PM 62.2 °F - 32.0 °F 32% 29.80 in 10.0 mi West 6.9 mph - N/A   Clear
3:15 PM 61.3 °F - 32.0 °F 33% 29.80 in 10.0 mi NNW 8.1 mph - N/A   Scattered Clouds
3:35 PM 61.0 °F - 32.0 °F 34% 29.82 in 10.0 mi NNW 6.9 mph - N/A   Clear
3:55 PM 61.3 °F - 32.0 °F 33% 29.82 in 10.0 mi NW 5.8 mph - N/A   Clear
4:15 PM 61.0 °F - 31.6 °F 33% 29.83 in 10.0 mi North 6.9 mph - N/A   Scattered Clouds
4:35 PM 59.2 °F - 30.2 °F 33% 29.84 in 10.0 mi NNW 8.1 mph - N/A   Scattered Clouds
4:55 PM 58.1 °F - 29.5 °F 34% 29.85 in 10.0 mi NNW 6.9 mph - N/A   Clear
5:15 PM 56.5 °F - 29.1 °F 35% 29.86 in 10.0 mi NNW 3.5 mph - N/A   Clear
5:35 PM 55.9 °F - 28.9 °F 36% 29.86 in 10.0 mi Calm Calm - N/A   Clear
5:55 PM 54.7 °F - 28.9 °F 37% 29.87 in 10.0 mi Calm Calm - N/A   Clear
6:15 PM 52.9 °F - 27.9 °F 38% 29.88 in 10.0 mi NW 5.8 mph - N/A   Clear
6:35 PM 51.8 °F - 26.6 °F 38% 29.89 in 10.0 mi NW 3.5 mph - N/A   Clear
6:55 PM 50.0 °F - 26.6 °F 40% 29.90 in 10.0 mi NW 3.5 mph - N/A   Clear
7:15 PM 48.7 °F - 27.1 °F 43% 29.91 in 10.0 mi NW 4.6 mph - N/A   Clear
7:35 PM 47.7 °F - 27.3 °F 45% 29.93 in 10.0 mi NNW 3.5 mph - N/A   Clear
7:55 PM 44.6 °F 40.7 °F 28.4 °F 53% 29.94 in 10.0 mi North 6.9 mph - N/A   Clear
8:15 PM 43.2 °F 39.0 °F 27.5 °F 54% 29.95 in 10.0 mi North 6.9 mph - N/A   Clear
8:35 PM 41.7 °F 38.8 °F 26.8 °F 55% 29.95 in 10.0 mi North 4.6 mph - N/A   Clear
8:55 PM 40.8 °F 37.8 °F 26.4 °F 57% 29.97 in 10.0 mi North 4.6 mph - N/A   Clear
9:15 PM 39.6 °F 36.3 °F 25.7 °F 58% 29.99 in 10.0 mi North 4.6 mph - N/A   Clear
9:35 PM 38.3 °F 34.8 °F 24.6 °F 58% 30.00 in 10.0 mi North 4.6 mph - N/A   Clear
9:55 PM 37.4 °F 33.8 °F 23.7 °F 58% 30.01 in 10.0 mi NNE 4.6 mph - N/A   Clear
10:15 PM 37.0 °F 34.5 °F 22.5 °F 56% 30.02 in 10.0 mi North 3.5 mph - N/A   Clear
10:35 PM 36.7 °F 34.1 °F 21.2 °F 54% 30.03 in 10.0 mi North 3.5 mph - N/A   Clear
10:55 PM 36.5 °F 32.7 °F 19.2 °F 50% 30.04 in 10.0 mi North 4.6 mph - N/A   Clear
11:15 PM 36.1 °F 31.4 °F 17.8 °F 47% 30.05 in 10.0 mi NNE 5.8 mph - N/A   Clear
11:35 PM 35.8 °F 30.9 °F 16.3 °F 45% 30.05 in 10.0 mi NNE 5.8 mph - N/A   Clear
11:55 PM 35.4 °F 29.7 °F 15.1 °F 43% 30.05 in 10.0 mi NNE 6.9 mph - N/A   Clear